Location: Guadanolo
(41.9167°N, 12.9333°E)
Time: 12:02:35
(UTC+00:00)

GP-B - Pass Details

Date: 16 September 2019
Orbit: 631 x 635 km, 89.8° (Epoch: 17 October)

Event Time Altitude Azimuth Distance (km) Brightness Sun altitude
Rises 18:23:56 0° 0° (N) 2,938 6.7 -13.1°
Reaches altitude 10° 18:26:10 10° 360° (N) 2,024 5.9 -13.5°
Maximum altitude 18:30:37 80° 273° (W) 648 3.2 -14.3°
Drops below altitude 10° 18:35:02 10° 187° (S) 2,007 5.6 -15.1°
Sets 18:37:14 0° 186° (S) 2,909 6.4 -15.5°
